Theta_e
322 321 322 322 321 323 324 323 322 324 326 327 325 325 326 325 327 327 330 330 328 326 326 322 326 322 321 322 323 324 321 321 322 323 324 326 323 321 325 326 323 324 323 324 325 327 327 327 326 324 324 324 323 321 321 323 321 319 319 317 316 314 312 315 311 311 314 310 313 314 316 316 318 315 314 312 313 315 316 316 317 317 318 319 319
320 319 320 321 321 321 322 324 324 323 324 324 325 325 326 326 327 327 330 330 329 327 323 325 323 321 321 317 317 319 319 318 320 328 327 322 326 328 334 332 330 325 325 325 325 324 324 323 325 324 325 324 325 322 322 326 319 316 316 313 315 313 311 315 314 311 311 308 307 308 311 312 319 314 312 311 312 315 312 312 312 311 313 313 316
319 319 319 320 320 320 320 323 321 320 321 322 322 325 326 326 326 326 330 326 324 326 325 325 327 326 325 323 317 318 323 325 324 324 322 320 325 326 323 323 321 320 322 324 321 324 326 325 324 329 324 325 323 322 320 320 317 314 314 313 313 312 313 314 315 312 308 309 308 307 305 305 310 310 310 309 311 310 310 310 310 309 309 310 309
317 318 320 320 318 319 319 318 322 322 321 320 322 324 323 325 326 327 327 326 325 324 325 327 327 327 326 327 330 325 321 323 325 323 323 323 322 327 328 328 323 320 320 320 321 324 326 323 323 326 325 324 323 321 319 316 315 313 313 313 314 310 310 311 314 312 308 309 301 303 304 305 301 302 303 306 309 306 307 307 307 307 306 305 305
317 318 319 319 319 319 318 318 320 320 319 319 321 321 320 322 325 326 326 326 325 326 328 330 329 328 330 328 326 326 329 328 319 319 323 325 328 325 322 323 324 322 324 321 321 322 327 325 323 321 328 325 323 321 318 315 314 313 313 312 312 311 309 310 311 309 306 313 304 303 301 300 298 300 299 304 304 304 304 304 306 305 303 304 303
319 318 319 320 319 320 319 320 321 318 319 319 319 320 322 322 322 325 326 327 327 328 330 330 328 330 326 328 319 318 319 323 324 323 319 319 319 328 325 323 322 323 322 322 321 323 324 326 323 321 323 326 323 321 318 316 314 313 313 312 310 312 310 308 306 308 306 309 305 307 305 301 299 300 298 294 302 304 302 303 303 303 303 302 303
320 319 319 319 319 319 320 319 319 318 318 319 319 322 321 321 323 324 326 327 326 328 329 331 329 324 321 319 319 319 320 321 327 329 327 322 329 327 326 328 322 323 324 323 323 322 324 325 323 322 321 321 323 320 318 315 313 312 314 312 309 310 308 306 305 302 305 305 303 304 305 306 301 298 296 297 294 299 302 302 301 302 302 302 303
319 318 319 320 320 319 318 318 319 319 320 318 321 322 323 322 323 324 326 327 326 326 325 327 322 322 321 320 321 319 321 321 322 325 329 329 328 329 327 325 324 325 325 324 322 322 324 324 323 322 320 318 318 314 315 315 315 314 314 312 310 310 307 306 304 303 301 302 304 304 304 304 301 302 300 296 295 293 296 300 301 301 302 303 303
319 318 319 319 320 320 318 317 319 320 319 321 320 322 323 323 324 324 325 327 330 327 323 323 326 325 324 322 321 321 321 323 325 325 327 329 327 328 326 329 327 328 326 325 324 324 324 322 321 319 318 317 316 313 313 312 314 312 311 309 307 308 308 308 305 303 303 301 301 302 303 302 299 300 301 299 297 294 294 295 296 300 301 301 302
319 320 320 320 321 320 319 318 319 320 322 324 323 322 323 324 324 324 324 326 325 326 326 324 324 326 324 326 323 323 323 323 322 325 325 328 324 326 325 326 330 327 328 327 327 324 323 322 318 317 317 316 315 313 312 309 313 308 308 309 308 307 309 307 305 305 304 305 302 303 302 303 299 299 298 298 298 298 294 294 296 296 295 298 302
319 320 320 320 322 320 318 318 320 322 322 323 323 320 323 324 324 324 325 325 326 325 325 325 325 325 323 323 323 321 320 323 323 324 327 326 325 323 327 331 329 325 329 330 326 323 323 322 320 316 316 317 314 312 310 306 309 308 307 308 306 306 306 307 305 306 305 305 303 303 302 301 298 297 297 299 298 296 296 296 297 298 296 296 299
321 320 320 320 321 319 318 318 320 321 322 322 323 321 323 324 325 324 325 326 326 326 326 326 325 325 325 325 322 323 322 319 321 318 318 318 324 325 329 330 326 327 328 329 325 322 322 321 319 317 315 315 312 311 309 305 308 307 308 308 306 306 306 307 305 304 304 304 303 303 303 304 300 299 299 300 299 298 297 295 296 296 296 296 298
320 320 320 320 318 318 318 318 319 319 321 320 322 322 323 324 325 324 324 326 326 327 326 326 325 325 327 330 326 324 323 323 320 325 323 324 326 326 326 325 326 325 327 324 322 321 321 320 318 317 316 315 313 310 308 306 308 308 306 306 306 304 304 305 304 304 305 303 303 304 302 303 299 299 301 300 300 300 298 295 296 296 293 295 297
320 320 321 319 319 318 318 318 317 318 320 320 322 323 323 324 325 324 324 326 327 327 326 327 327 327 327 328 327 330 325 331 328 326 325 326 329 324 326 325 326 325 325 323 320 317 319 318 317 316 314 312 311 310 309 307 308 305 305 306 306 307 306 305 304 304 305 304 305 303 300 302 300 301 301 300 299 298 296 295 294 295 295 294 296
319 321 321 320 320 320 319 319 318 317 320 320 321 321 322 321 324 325 324 326 327 327 328 326 327 328 329 324 329 333 324 335 335 327 328 325 327 328 325 326 327 327 324 324 321 319 318 316 314 314 313 311 310 310 309 309 309 307 305 306 307 307 307 305 304 303 302 301 302 303 301 302 301 300 302 301 300 299 298 297 295 292 292 293 293
320 321 321 321 322 322 321 321 319 318 321 321 319 320 323 321 323 325 325 326 327 327 327 329 328 328 329 332 330 332 330 329 336 330 331 332 330 327 327 328 329 325 324 320 320 318 317 315 312 311 311 310 308 307 307 307 307 308 307 305 304 304 305 304 304 303 302 302 302 304 301 300 300 301 301 300 300 300 299 298 296 294 290 288 291
320 320 321 322 321 322 320 321 319 319 319 319 321 321 323 324 323 325 325 325 327 326 328 328 330 329 327 329 330 327 331 329 334 330 329 332 336 335 330 327 327 326 322 321 318 318 317 316 313 311 310 309 309 308 305 305 306 307 306 305 304 305 305 303 304 304 302 303 302 302 301 301 299 301 301 301 301 301 298 297 296 294 293 290 288
320 322 322 323 322 321 321 320 320 320 320 320 323 323 325 324 322 323 325 324 325 326 326 327 327 327 327 328 329 331 329 328 330 330 331 330 332 331 330 329 325 323 321 320 319 317 316 314 313 311 310 308 308 308 305 304 306 307 305 304 304 306 305 304 303 302 303 302 302 301 300 300 300 300 299 300 300 299 298 296 295 295 295 291 290
320 320 321 322 322 322 322 322 321 321 322 320 320 322 321 324 322 324 325 326 327 326 327 328 328 327 326 328 328 328 329 329 328 328 330 330 329 329 327 325 323 322 321 320 318 315 316 314 313 308 308 307 307 308 308 307 305 306 305 305 304 304 303 301 303 302 301 301 299 299 299 300 300 299 298 298 299 298 296 295 295 295 295 294 291
321 320 321 322 323 323 323 322 321 320 319 320 321 321 323 324 324 325 327 327 327 326 328 328 325 326 325 327 329 327 327 326 328 329 330 328 325 327 324 324 323 322 320 318 314 314 314 311 308 307 305 306 304 305 305 306 308 306 305 303 303 302 300 299 300 300 300 299 298 298 298 298 299 297 296 297 297 297 296 295 295 294 294 294 293
320 320 321 322 324 324 323 324 322 322 320 320 320 322 323 323 324 325 328 326 326 327 327 327 328 326 327 327 328 329 328 328 329 329 330 333 329 327 324 322 320 319 318 316 314 312 310 309 305 306 304 305 304 305 307 307 306 305 305 304 301 300 298 299 300 299 298 298 298 297 296 298 298 296 295 295 296 295 295 295 294 293 292 292 292
321 321 321 322 324 324 323 323 322 321 320 319 320 321 321 321 322 324 328 325 326 326 326 327 328 330 329 329 330 331 330 329 329 329 330 329 326 324 322 320 318 318 316 312 311 312 309 307 305 303 304 303 303 303 305 307 304 304 304 302 302 299 300 299 299 297 296 298 298 297 296 297 298 295 294 293 294 294 293 293 292 292 291 291 292
322 322 322 323 324 324 323 322 321 320 320 321 321 321 321 321 325 325 324 325 326 326 326 327 328 329 331 331 332 331 330 331 332 333 330 326 324 322 320 318 316 316 315 313 311 310 308 306 304 306 303 304 304 304 307 305 304 302 300 302 302 301 300 299 297 297 295 297 297 297 296 297 298 295 294 293 294 293 293 291 291 291 291 291 291
321 323 325 324 324 325 324 321 320 319 320 322 322 322 324 322 324 324 326 326 326 325 326 326 328 329 331 331 331 332 331 327 328 331 327 324 322 321 319 316 315 315 311 314 311 307 306 306 305 302 302 302 305 307 306 304 301 302 301 300 299 300 299 298 298 296 296 296 296 296 296 297 296 294 293 293 293 293 292 291 290 291 290 290 291
321 323 324 324 323 322 322 320 320 318 319 322 320 321 321 324 324 324 325 327 326 326 326 326 326 328 329 331 332 331 330 330 332 329 325 323 321 319 318 314 314 313 311 310 309 307 306 306 306 302 302 303 304 305 304 305 304 305 303 302 300 299 300 298 299 298 298 297 296 295 295 297 296 294 293 292 292 292 292 291 289 289 289 290 291
321 322 324 323 322 322 321 321 319 319 319 319 322 321 321 323 325 327 326 326 326 327 326 326 326 327 328 330 332 331 330 330 329 326 323 321 319 317 315 314 312 311 312 310 311 308 304 302 302 302 302 300 300 301 300 301 302 304 304 303 303 301 299 298 297 298 297 297 296 295 296 297 295 294 293 293 292 292 291 290 288 288 288 289 290
322 323 322 323 323 323 321 322 322 321 321 320 321 320 321 323 325 326 326 327 326 327 326 326 327 327 326 328 329 330 331 331 327 324 322 319 317 316 314 311 311 310 309 308 305 305 306 302 302 302 300 299 298 297 297 297 298 300 301 301 301 301 298 300 297 297 297 297 296 296 296 297 296 295 294 293 292 292 291 289 288 288 288 288 289
321 323 322 322 323 323 324 323 323 321 323 321 321 321 321 323 325 325 325 327 327 327 326 326 328 328 328 328 329 332 332 329 326 322 320 319 317 315 314 313 312 310 307 305 303 303 305 302 303 301 300 299 296 294 294 293 294 295 297 300 300 301 298 299 299 297 297 297 296 296 296 296 296 296 296 293 293 291 289 288 287 288 287 288 288
320 322 323 322 322 324 325 325 325 326 325 322 320 321 323 325 324 324 325 326 328 327 326 325 327 327 327 328 331 332 330 326 322 321 319 317 316 314 313 312 311 310 308 305 305 303 302 302 301 302 299 297 295 294 293 292 293 292 293 297 300 299 298 298 297 296 296 296 296 295 296 296 298 298 297 296 294 292 289 286 287 287 287 287 287
318 322 322 323 323 324 325 327 325 323 323 320 321 321 321 322 324 324 324 326 327 327 325 325 325 326 328 327 330 328 327 324 321 318 317 315 313 313 311 310 308 307 307 307 304 305 302 302 301 300 299 298 296 294 294 292 293 292 292 295 297 299 298 298 297 297 296 297 296 295 296 298 298 297 296 296 293 292 291 289 287 287 287 287 287
320 321 323 322 323 323 325 325 326 325 325 323 323 322 321 321 322 323 323 324 325 327 326 325 324 326 327 330 329 327 325 322 319 317 315 313 312 312 310 308 308 307 307 306 305 303 304 303 301 299 298 296 294 293 292 290 291 291 292 293 294 297 298 299 298 296 295 295 296 295 295 295 297 295 294 295 292 291 290 289 290 291 291 289 288
321 321 322 323 322 325 325 325 325 325 325 324 325 324 323 322 323 322 324 325 325 326 325 325 325 327 327 331 329 326 323 320 317 315 314 312 312 310 309 308 307 306 306 307 306 304 304 304 302 299 297 295 292 293 291 290 291 290 291 292 293 296 299 299 299 297 296 296 295 295 294 294 295 294 294 291 290 290 289 289 289 290 291 293 294
321 321 322 323 323 324 327 328 326 325 324 325 325 325 325 325 324 326 325 325 326 327 325 325 326 326 329 331 326 323 320 318 316 314 314 312 310 309 308 307 306 307 306 305 304 304 303 304 303 300 298 295 291 290 291 289 290 290 290 291 292 296 298 299 300 299 298 297 297 296 295 294 293 295 294 289 287 285 288 288 289 291 292 293 291
322 324 322 324 325 327 327 329 327 327 327 327 328 326 327 328 327 326 325 326 325 325 325 325 328 328 330 327 323 321 318 317 316 314 312 311 310 308 308 308 307 306 305 304 304 304 304 304 303 301 298 296 292 291 289 289 290 289 290 290 291 295 298 299 299 299 299 298 297 297 295 293 293 294 290 287 286 284 284 285 286 287 288 291 292
325 323 325 327 326 327 327 330 326 326 331 330 326 327 329 327 327 326 326 325 325 324 325 327 328 330 327 324 322 319 317 316 314 313 312 310 309 309 308 307 306 305 304 303 303 303 303 304 303 301 298 294 292 290 289 288 289 289 289 290 292 295 297 299 300 300 300 299 298 299 296 294 293 293 289 288 285 285 284 285 286 287 287 288 289
321 321 326 328 325 327 328 330 329 328 327 326 326 327 326 325 326 325 325 325 325 325 324 327 329 328 325 323 321 318 317 315 313 312 311 310 309 308 307 307 306 305 305 305 304 304 303 303 303 301 297 292 290 288 289 288 289 289 289 293 295 297 298 299 300 300 299 299 299 298 297 295 293 292 289 287 287 286 285 285 285 286 287 288 289
325 325 326 330 332 328 329 330 328 326 324 325 325 325 325 324 324 324 324 324 325 325 325 329 328 326 323 321 320 318 315 314 313 311 310 310 309 308 307 307 305 305 304 303 303 302 303 303 303 302 299 294 290 289 289 288 288 288 290 293 296 297 298 299 298 299 299 298 300 297 296 294 292 290 288 286 286 288 285 285 285 285 286 287 287
322 325 325 329 330 329 332 327 328 328 328 327 329 329 326 327 325 324 324 324 323 324 326 328 327 324 323 321 319 317 315 313 312 311 310 310 309 308 307 307 305 304 303 303 302 302 302 302 302 303 302 297 292 289 288 287 287 288 290 292 295 296 297 296 296 297 299 299 297 297 295 291 289 287 286 286 286 287 285 285 285 285 285 285 285
321 322 321 322 327 327 325 328 329 325 326 331 327 327 323 323 325 324 324 323 324 324 326 327 325 324 322 321 318 316 315 313 312 311 311 309 309 308 308 308 306 304 303 303 302 301 302 302 302 303 304 298 292 289 289 288 287 289 289 291 293 295 294 294 293 295 297 298 295 294 292 289 288 286 287 287 287 287 285 285 285 285 285 284 284
321 323 326 325 326 323 325 327 326 329 330 329 328 325 326 325 323 323 323 323 324 326 327 327 325 323 322 320 318 317 315 314 312 312 311 310 310 308 307 306 305 303 302 301 301 301 301 301 301 300 297 301 294 291 289 288 288 289 287 289 293 295 292 291 292 293 295 297 295 291 290 287 288 288 287 287 287 288 286 286 286 285 285 284 286
320 323 321 324 324 323 322 322 324 328 326 325 324 326 327 326 327 325 324 325 328 329 328 326 324 322 320 318 318 317 315 315 313 312 311 311 309 307 307 306 304 304 302 302 302 303 302 301 299 298 297 301 300 294 291 288 288 288 288 288 292 293 290 289 290 292 294 293 293 293 292 290 288 288 288 288 288 288 288 287 287 286 287 289 289
324 323 325 325 321 326 327 323 325 326 325 326 326 326 325 325 327 327 328 329 328 328 326 325 322 320 319 318 317 317 316 315 313 312 310 309 309 308 307 306 304 303 303 302 303 302 301 300 300 300 301 300 302 299 291 289 289 287 287 286 290 291 289 288 290 292 293 293 293 293 292 292 288 288 288 288 288 288 288 288 288 289 289 289 288
327 326 324 325 326 325 323 327 327 327 327 327 328 327 328 331 331 336 334 328 328 327 325 323 321 319 319 318 317 317 315 314 313 312 310 309 308 307 306 305 305 304 303 302 302 301 300 299 299 300 301 299 296 299 296 292 289 288 288 288 287 287 288 290 291 291 293 293 294 293 293 292 289 289 288 288 288 288 289 289 289 289 289 288 290
330 330 328 328 329 328 331 336 332 334 331 330 331 329 329 331 331 332 329 327 326 324 323 321 320 319 318 317 316 316 315 314 313 311 310 308 307 306 305 304 305 303 301 300 300 299 299 298 298 297 299 298 295 295 295 295 291 287 288 287 288 288 287 290 292 291 292 293 292 292 291 289 289 288 288 288 288 289 289 289 288 288 288 290 290
332 329 333 332 328 332 330 330 331 333 333 329 331 330 329 329 330 327 325 324 323 322 321 320 318 317 317 315 315 314 314 313 312 311 309 307 307 306 303 304 304 302 301 299 298 299 298 298 298 297 297 298 298 295 292 294 291 289 288 287 287 288 288 288 288 292 294 293 291 290 289 289 289 289 288 288 289 290 290 289 289 289 292 289 288
331 334 332 333 332 331 329 327 328 332 332 331 332 330 327 328 326 325 324 323 322 321 319 318 317 317 316 315 314 313 313 312 311 310 310 308 307 305 304 303 302 301 300 299 298 298 297 297 297 298 298 297 298 297 293 293 293 292 289 288 288 287 290 290 290 290 291 289 288 288 288 289 289 290 291 290 291 293 291 290 290 292 289 287 287
330 333 330 333 330 328 328 328 328 330 330 329 331 329 329 325 324 323 323 322 321 319 318 318 317 316 316 315 314 312 312 311 311 310 309 308 307 305 304 302 301 300 300 299 299 298 297 296 297 298 298 298 297 297 296 293 292 292 291 292 290 289 291 291 289 290 292 293 293 291 290 289 290 291 291 291 290 291 292 291 289 289 288 287 287
335 332 332 332 330 328 328 327 326 329 329 329 328 328 326 325 323 323 322 321 319 319 318 317 317 316 315 314 313 308 310 310 310 309 308 307 307 306 304 302 300 300 299 299 299 298 297 297 297 297 298 297 297 296 296 296 294 295 296 296 294 293 293 293 293 291 287 288 289 290 291 292 293 294 294 292 291 291 290 289 288 288 288 288 290
333 332 331 330 329 328 329 328 327 328 329 328 329 328 326 325 323 322 322 320 319 316 318 318 317 316 314 313 313 311 311 310 309 309 309 308 307 305 304 304 304 303 302 301 300 300 299 299 298 297 297 297 296 296 297 296 298 294 294 294 294 293 290 292 288 285 286 287 288 289 291 293 292 291 289 289 289 289 288 289 290 289 288 287 286
333 330 331 333 330 331 329 327 327 328 328 327 328 326 325 324 322 322 322 320 318 318 318 317 316 314 313 312 312 310 311 310 309 308 308 305 292 295 304 305 303 296 293 295 299 303 305 301 300 302 301 298 297 297 287 288 288 287 287 287 287 287 286 286 286 286 286 286 287 289 291 291 291 289 288 287 287 287 287 286 287 288 287 286 286
331 329 329 330 330 329 328 327 327 327 326 326 326 325 324 323 322 322 322 320 319 317 317 316 315 313 311 312 311 310 311 310 309 308 308 306 303 299 289 288 296 294 292 290 289 288 289 291 306 298 290 290 288 287 288 287 287 287 287 287 287 286 286 286 285 284 285 287 288 289 290 290 290 289 288 287 287 286 286 286 286 286 287 287 285
Wind_Speed
10 10 10 10 9 7 6 6 6 5 3 5 6 5 5 5 5 5 4 4 5 3 4 5 3 4 5 5 5 4 5 5 6 4 3 3 4 5 3 4 4 5 6 5 5 4 4 4 5 7 6 6 6 7 7 6 8 7 7 7 8 8 7 7 9 8 7 8 8 9 8 9 8 10 12 10 10 7 6 7 6 5 4 3 3
11 10 13 11 9 10 7 5 6 5 4 7 6 6 7 7 5 5 4 3 2 5 6 7 7 7 5 5 5 6 6 5 4 2 2 5 4 3 0 0 2 6 5 5 6 6 6 7 5 5 5 5 6 7 8 6 9 9 7 6 7 8 6 9 8 9 6 8 8 9 8 9 5 10 11 12 11 6 8 8 8 9 9 9 8
10 10 7 10 11 13 8 6 6 6 5 9 7 5 5 4 5 2 3 5 8 7 6 5 4 4 4 5 6 5 4 3 2 3 6 6 4 4 7 8 8 6 5 4 7 5 5 5 6 3 6 6 6 6 8 8 8 9 9 7 7 7 7 8 7 9 7 6 5 6 7 10 9 9 10 12 11 11 9 8 8 9 10 8 9
9 9 7 11 13 9 9 7 5 5 6 7 7 5 5 4 3 3 4 6 5 6 6 4 5 4 4 3 4 4 4 4 3 6 4 4 4 3 3 3 5 6 6 7 7 5 4 6 6 5 5 5 5 6 8 9 8 9 9 9 7 7 8 7 9 9 8 7 6 6 6 5 6 7 11 10 8 12 11 10 8 8 9 12 9
10 9 12 10 10 9 8 7 7 5 6 7 7 6 5 6 5 5 5 6 6 5 4 3 3 3 2 3 4 4 1 3 6 4 3 3 2 3 5 5 4 5 5 8 8 6 4 5 6 6 4 5 6 6 7 8 7 7 9 8 8 7 7 6 7 10 11 6 6 4 4 5 4 8 9 5 9 8 10 10 9 10 11 10 8
10 11 9 11 10 9 7 7 7 8 6 6 9 8 5 6 7 6 5 4 5 5 4 2 2 2 4 2 6 6 5 4 3 3 5 4 3 2 3 3 6 8 7 6 7 6 5 5 6 6 5 5 6 5 5 6 6 8 8 7 9 8 7 6 7 7 9 7 9 5 3 3 6 7 7 6 5 5 8 9 9 11 11 11 8
11 9 11 13 11 9 7 7 7 8 7 8 7 6 8 9 6 7 5 4 4 4 4 3 2 5 5 6 7 4 4 4 2 2 3 3 2 3 4 5 7 6 6 5 6 6 6 5 6 6 7 6 6 6 5 6 6 8 7 7 8 8 7 7 7 7 7 6 9 7 7 5 7 6 6 7 9 4 4 8 9 11 11 10 10
10 11 9 12 11 10 8 9 8 8 8 9 6 6 8 7 8 7 5 4 4 4 5 5 7 7 7 6 5 5 3 3 3 2 2 2 3 2 3 5 5 4 4 5 5 5 5 5 6 6 6 7 6 7 6 6 6 6 7 7 7 6 7 6 6 7 7 6 8 7 7 7 9 7 7 6 6 10 9 4 5 9 9 7 11
12 10 12 13 10 11 10 10 10 9 8 7 7 8 7 6 7 7 6 4 3 7 6 5 5 4 4 4 5 4 4 3 2 3 2 0 2 2 5 3 4 3 4 5 5 5 5 6 6 7 6 7 6 6 6 7 6 7 7 7 7 6 6 6 6 6 7 6 7 6 7 5 7 6 7 6 6 8 9 10 10 7 5 6 8
12 11 12 13 10 12 11 12 10 8 7 7 9 8 7 7 7 7 6 5 6 6 5 6 6 5 4 3 4 4 4 4 4 3 3 2 3 3 4 3 2 4 3 3 3 6 6 6 7 8 7 7 7 7 7 8 6 7 7 6 6 5 5 6 6 5 6 6 6 6 6 5 5 5 6 7 6 6 8 11 11 13 11 8 6
11 12 11 13 9 13 13 12 10 8 6 8 7 9 6 6 7 7 5 5 6 5 5 5 4 4 4 4 5 5 5 4 4 3 2 2 3 4 3 1 3 4 2 2 3 6 6 6 6 7 6 6 6 6 6 7 6 6 6 6 6 6 5 5 5 5 5 5 7 6 7 5 6 6 6 6 6 6 7 8 9 8 10 11 9
14 14 14 13 10 12 12 11 11 9 7 9 7 8 7 6 6 7 6 6 4 5 5 4 4 4 4 4 4 3 3 4 4 5 5 4 3 3 3 2 3 4 2 2 4 5 5 5 6 6 5 5 6 5 6 6 6 6 5 5 5 5 5 4 4 5 5 5 5 6 7 4 6 5 6 6 5 6 6 8 8 8 8 7 9
14 13 13 13 12 13 12 12 11 10 7 9 8 8 7 7 7 7 7 6 4 4 5 5 5 4 3 1 3 6 5 4 4 2 3 4 2 3 3 3 3 3 3 3 4 5 4 5 4 5 4 5 5 5 5 6 6 4 5 4 5 5 5 5 4 5 5 5 5 5 6 4 6 5 5 5 6 5 6 7 7 8 9 9 8
14 14 14 14 13 13 14 13 13 10 9 9 9 8 7 7 7 8 7 6 6 5 6 4 4 4 4 3 2 1 4 1 2 1 2 3 2 3 2 4 3 2 2 4 4 5 4 4 4 4 5 5 5 5 5 5 5 5 5 5 4 3 3 4 4 5 4 4 4 4 6 4 5 5 5 5 6 6 6 7 8 7 8 8 7
14 15 14 14 13 12 13 12 12 11 10 9 8 10 9 8 7 8 8 7 6 5 4 5 4 3 4 5 2 2 4 1 2 3 2 2 2 1 3 3 3 2 4 3 4 4 4 4 5 5 4 5 4 4 4 4 4 4 4 5 4 3 3 4 4 5 6 7 5 3 6 5 6 5 5 5 5 5 6 6 7 10 8 6 8
12 15 14 15 13 10 13 10 11 11 11 10 10 10 8 8 8 8 8 7 7 6 4 3 5 4 3 1 3 2 3 3 1 2 2 2 2 2 3 3 2 4 4 4 5 5 4 5 5 6 5 4 4 4 4 3 4 4 3 4 4 4 4 4 3 3 4 5 5 3 4 5 6 6 5 6 5 5 5 6 7 7 9 10 7
14 13 14 15 14 11 13 12 11 12 12 11 10 10 10 8 9 7 8 7 7 7 6 4 3 4 5 3 2 1 1 2 1 1 0 2 1 2 2 4 4 4 4 4 4 4 3 4 4 5 4 4 4 4 5 5 4 4 3 3 3 3 3 3 3 3 3 3 4 4 5 5 5 5 4 5 5 4 5 5 6 7 7 9 10
15 16 16 16 15 14 13 13 14 12 13 12 10 10 10 9 10 10 8 8 8 8 7 5 6 5 5 4 4 2 2 2 2 2 2 2 2 2 3 3 4 4 4 4 4 4 3 4 4 4 3 4 3 3 4 5 4 4 3 3 3 3 3 3 3 3 3 3 4 4 5 4 5 5 5 6 5 5 5 6 6 6 6 7 8
13 14 15 14 13 13 11 12 15 13 12 13 11 10 11 9 11 9 10 10 7 7 5 5 5 4 5 5 4 4 3 3 4 4 3 2 2 3 4 5 4 4 4 3 4 4 3 3 3 4 3 4 3 3 3 3 3 3 3 3 3 3 3 3 3 3 3 3 5 4 4 4 4 5 6 6 5 6 6 7 7 6 6 6 7
15 13 15 15 14 14 13 12 14 15 15 14 12 10 13 10 10 8 10 9 7 7 6 6 7 6 6 5 5 5 4 4 3 3 3 3 2 6 6 4 4 3 3 4 4 3 3 3 3 3 5 3 4 3 3 3 2 2 3 4 3 4 4 3 3 4 3 4 5 5 5 5 5 6 6 6 6 6 6 7 7 7 7 7 6
15 14 14 15 13 13 13 12 14 14 13 13 13 11 11 10 9 9 9 10 8 7 7 6 5 6 6 8 7 6 5 4 3 4 3 1 5 6 6 5 4 4 3 3 3 4 4 4 4 4 4 3 3 3 2 2 2 2 2 2 3 4 5 3 3 4 4 4 5 5 6 6 6 6 6 6 7 8 8 8 7 7 7 7 8
11 13 13 15 14 13 14 13 12 15 13 15 13 11 13 12 9 9 9 10 8 8 7 7 5 5 4 5 5 4 4 3 4 5 3 7 6 6 6 5 5 4 4 4 5 3 4 4 4 4 3 4 3 3 2 2 3 3 3 3 2 4 3 3 3 4 5 5 4 5 6 6 5 7 7 8 8 8 9 8 8 8 8 8 8
12 11 12 15 14 13 13 15 13 15 13 13 13 11 11 12 10 9 10 9 8 8 7 6 5 5 3 5 4 4 4 5 1 3 6 7 7 6 6 6 5 4 4 4 4 4 4 4 4 3 3 3 3 2 2 2 2 3 3 3 3 3 3 3 4 4 5 4 5 4 5 5 5 6 7 7 7 8 8 8 9 8 9 9 9
12 10 11 12 14 12 12 14 13 14 12 12 12 12 8 11 9 8 8 10 9 8 7 7 6 6 5 4 4 4 5 5 6 4 7 7 7 6 6 6 6 4 5 3 3 5 4 3 3 4 3 2 2 2 2 2 3 2 2 3 3 3 3 3 4 5 5 5 5 4 4 4 5 5 6 6 6 7 7 7 8 8 9 9 8
12 12 12 14 14 15 14 13 12 15 13 9 14 13 9 10 9 9 8 8 8 8 8 8 8 7 6 5 5 3 0 4 5 7 7 7 6 6 5 7 5 5 5 3 3 4 4 3 3 4 4 2 2 2 2 2 2 2 2 2 3 3 3 4 3 4 5 4 4 4 5 4 4 5 4 5 6 7 7 7 8 8 9 8 8
12 13 12 13 13 13 12 10 11 14 14 13 12 11 11 10 9 8 9 9 9 7 8 8 7 7 6 6 4 4 5 4 9 7 7 7 6 6 6 5 7 6 4 3 2 3 3 5 5 5 4 5 4 4 5 5 4 2 2 2 2 3 3 3 4 4 4 4 4 4 5 4 5 4 4 4 5 7 7 8 9 9 9 9 9
11 12 12 10 12 12 13 12 9 12 12 12 10 11 11 10 9 9 9 9 8 8 8 7 7 7 7 6 7 6 6 8 8 8 6 6 6 6 7 8 7 5 5 3 4 3 3 5 5 5 5 5 5 5 5 6 7 6 5 3 3 3 3 3 3 4 5 4 4 5 4 4 5 4 3 4 5 6 6 8 8 9 9 9 9
10 12 13 13 12 12 11 11 9 9 10 13 11 11 11 10 10 9 9 8 8 7 7 7 6 5 5 6 6 6 6 7 8 8 7 6 6 6 6 6 5 5 5 5 5 5 3 5 5 6 5 4 5 6 6 6 6 6 6 6 3 3 3 3 3 4 4 4 4 5 5 5 5 3 2 4 5 5 6 7 7 8 9 9 9
11 12 12 13 13 10 10 10 8 6 9 13 13 11 9 8 11 11 9 9 8 8 8 7 6 6 5 5 5 8 7 8 9 8 7 6 6 6 6 5 4 4 4 5 4 5 5 6 6 5 6 5 5 5 5 5 5 6 6 6 6 4 3 3 3 4 4 4 4 5 5 5 7 8 12 10 8 11 8 8 8 7 8 8 9
12 13 13 12 12 12 10 9 10 10 9 12 11 12 13 10 11 11 10 9 8 9 9 8 7 7 6 5 10 8 8 8 7 8 7 7 7 7 6 6 5 5 4 4 4 4 5 5 6 6 5 4 4 3 6 9 7 5 5 5 6 5 3 3 3 3 4 3 4 5 7 13 12 11 13 9 13 16 17 13 10 9 9 9 9
10 12 12 12 11 12 11 10 10 11 10 9 10 10 11 12 10 10 12 11 11 9 9 8 7 7 5 6 10 10 9 9 8 7 7 8 8 7 6 6 5 5 4 4 3 4 4 5 6 6 5 4 4 3 7 6 6 9 6 4 5 6 4 3 3 3 3 4 4 5 4 8 8 10 9 12 14 15 17 18 19 19 16 12 10
10 11 11 12 12 10 11 11 12 12 12 12 9 11 10 10 9 10 9 10 9 9 9 8 7 4 6 8 9 8 9 9 9 9 9 8 8 7 7 6 6 5 4 3 3 4 4 5 5 6 5 4 3 4 4 5 6 7 7 5 4 5 4 2 2 3 3 3 3 3 4 5 4 8 6 6 11 15 16 18 19 18 18 18 14
8 9 11 11 11 11 10 10 10 11 12 11 11 10 9 9 9 8 8 7 7 6 7 7 7 6 8 8 7 9 10 10 10 10 8 8 8 8 7 7 7 5 4 4 4 4 4 4 5 6 5 4 3 3 3 5 6 6 7 7 4 5 5 3 2 2 2 2 3 2 2 4 5 11 6 6 8 10 15 18 19 18 17 16 14
6 2 9 10 8 6 7 7 9 10 10 10 8 9 8 7 7 8 9 7 8 8 7 7 7 7 8 9 10 11 11 10 10 9 9 9 8 8 7 6 6 5 5 4 4 4 4 4 5 5 5 4 3 3 2 4 5 7 7 6 4 5 5 5 3 2 2 2 3 2 1 3 3 3 5 6 7 8 9 10 10 10 9 13 14
8 8 5 5 6 7 7 8 9 10 6 6 9 8 6 7 7 7 8 8 9 10 8 7 7 9 11 11 11 11 11 11 10 10 9 9 8 7 7 6 6 5 5 5 4 4 4 4 5 5 5 4 2 3 1 3 4 6 8 6 4 5 6 6 3 2 1 2 3 1 1 2 3 3 4 8 7 7 8 9 10 10 10 10 10
7 9 5 7 10 8 7 7 6 7 9 10 9 9 9 9 9 9 8 8 8 8 8 7 9 10 12 11 11 11 11 11 11 10 9 9 8 8 7 6 5 5 5 4 4 4 4 4 4 6 5 4 3 2 0 1 4 6 8 5 4 6 7 5 2 2 2 2 2 1 1 2 3 3 8 10 8 8 7 9 10 10 10 9 8
5 9 10 5 5 8 9 9 9 8 10 9 10 10 9 10 10 9 8 8 7 7 7 8 10 11 12 12 12 12 12 12 11 11 10 9 9 8 7 6 6 6 6 5 4 4 4 4 5 5 6 5 4 4 3 1 3 6 6 4 4 6 5 2 3 3 2 3 1 3 2 3 4 4 7 8 9 11 6 8 9 10 10 9 8
8 7 7 7 7 5 9 11 9 7 6 7 5 5 5 5 6 6 5 6 8 8 8 10 10 11 11 11 12 12 12 12 11 11 10 9 8 6 7 6 6 6 6 5 5 5 4 4 4 4 6 6 5 4 4 2 2 4 6 4 4 6 3 3 3 3 3 2 7 7 5 4 4 3 6 6 8 8 6 7 8 10 11 10 10
8 12 9 10 9 9 9 8 7 7 6 4 6 6 7 7 5 6 7 8 8 8 10 11 11 12 12 11 11 12 12 11 12 10 9 10 8 7 6 5 5 5 5 5 5 5 4 4 3 3 6 8 6 5 5 3 1 3 4 3 4 5 3 3 4 4 3 2 5 7 9 5 3 2 5 4 7 6 5 6 8 9 10 10 10
9 9 6 8 7 7 8 7 6 5 5 4 5 6 6 7 8 8 8 8 8 8 9 10 11 11 10 10 10 11 10 11 11 10 9 8 7 7 7 6 6 5 5 5 5 5 5 4 3 3 2 5 7 5 5 5 2 1 4 4 4 4 3 3 4 5 4 2 5 5 4 4 5 2 7 7 8 8 5 6 7 7 9 11 11
7 11 7 8 7 6 8 10 8 6 6 7 7 4 4 6 6 6 7 6 7 8 11 11 10 10 11 12 10 10 11 9 9 10 9 8 7 7 7 6 6 5 5 5 5 4 5 5 5 4 4 4 6 7 6 6 4 2 3 4 3 3 3 3 4 5 4 2 3 1 4 3 5 8 8 10 11 11 10 7 7 7 8 13 15
8 13 9 8 9 7 5 8 8 9 9 7 6 5 7 6 6 7 5 5 9 11 10 10 11 12 11 11 10 9 9 8 10 9 8 8 7 7 6 6 5 5 6 5 4 4 4 5 5 5 5 3 5 10 6 6 5 3 1 2 2 1 2 2 4 5 4 2 2 2 1 3 6 7 10 12 14 13 13 8 9 13 17 19 15
7 6 7 7 6 8 9 7 6 7 6 6 5 6 5 3 3 2 2 7 10 10 11 11 11 11 10 10 9 10 9 8 9 9 9 8 7 7 6 6 5 5 6 5 5 4 4 4 5 4 4 5 5 6 10 7 7 6 6 4 4 3 3 3 3 4 4 4 2 2 3 6 9 11 12 13 15 16 12 8 14 15 16 19 15
5 4 4 5 4 3 3 3 4 3 4 4 3 4 3 3 3 3 6 8 9 10 11 10 9 10 10 9 10 10 9 8 9 9 8 8 8 7 6 6 5 6 5 6 5 5 5 5 5 5 5 5 6 5 8 10 8 10 8 9 7 7 6 4 2 4 5 4 3 3 4 10 13 14 15 14 14 14 11 15 16 16 16 15 8
3 4 4 4 3 7 7 5 4 3 3 4 4 4 5 4 5 7 8 9 9 10 9 9 10 10 9 10 9 9 8 9 9 9 8 8 8 7 7 6 6 6 6 6 6 6 6 6 6 6 6 6 7 7 6 9 12 11 12 11 10 10 10 7 4 5 4 3 5 9 11 14 15 16 16 15 12 14 16 13 12 14 13 5 5
4 3 5 3 7 8 7 7 6 4 4 4 4 6 6 6 7 7 9 9 10 10 10 10 10 9 10 11 10 10 10 9 8 7 7 7 8 8 6 6 6 6 6 6 7 7 7 6 6 6 6 6 6 7 7 8 8 8 9 12 12 11 10 10 9 7 9 13 15 15 16 16 15 13 10 8 6 6 12 16 15 10 4 6 4
5 6 4 4 8 7 7 7 7 5 5 5 6 6 6 8 8 8 8 9 9 10 9 9 9 9 9 9 9 8 8 8 8 7 7 7 7 7 7 7 7 7 7 7 7 7 7 7 6 6 6 6 6 6 7 7 8 7 7 7 8 7 9 9 6 6 8 7 8 8 8 12 12 15 15 15 14 13 9 4 4 4 5 5 5
4 6 5 6 7 8 8 8 7 6 6 7 7 8 8 8 9 9 9 9 9 9 9 9 10 9 8 9 8 10 10 8 8 8 7 7 7 8 7 7 8 8 8 8 8 7 7 7 6 6 6 5 6 6 6 8 8 8 8 7 7 6 6 5 2 1 3 5 6 8 10 10 9 7 5 2 1 2 4 3 4 4 5 4 5
5 5 4 6 6 8 8 7 7 6 7 7 8 8 8 9 9 9 10 10 9 9 9 10 9 9 8 8 7 9 8 8 7 8 7 8 9 9 7 6 7 7 7 7 7 6 6 6 6 6 6 6 6 7 7 6 8 8 6 4 4 2 1 3 4 4 4 5 5 7 7 7 2 2 3 3 3 3 3 4 4 4 4 4 4
5 5 5 5 6 8 8 7 7 6 7 8 9 9 9 9 9 9 10 9 10 9 9 9 9 8 8 8 7 8 8 8 8 8 8 3 8 6 2 6 7 3 7 5 3 5 5 5 6 3 1 7 7 4 7 12 13 11 10 10 8 7 5 2 4 7 3 4 5 6 7 6 2 1 3 3 3 3 3 4 4 5 4 4 4
6 6 6 5 5 8 7 7 7 7 8 8 9 9 10 9 9 9 10 10 11 9 8 8 9 8 10 9 8 9 9 8 8 8 7 7 5 4 7 9 3 12 10 9 9 8 5 4 3 4 4 10 16 14 12 12 11 11 11 10 9 7 4 4 5 4 3 3 5 6 6 4 1 1 2 3 3 3 3 4 5 4 4 4 4
Wind_Direction
158 147 119 120 113 106 91 83 89 87 115 84 86 98 96 106 93 73 90 35 18 38 48 25 25 68 41 50 85 80 87 87 78 68 64 58 76 76 78 120 117 89 71 65 41 29 17 17 36 35 23 13 17 17 2 15 24 25 2 355 358 358 342 31 22 354 351 359 338 337 327 346 343 19 17 10 350 342 351 342 347 329 334 18 8
161 143 136 135 137 123 112 118 109 87 69 88 79 74 78 84 96 87 61 61 60 86 61 37 27 22 33 63 52 42 39 56 70 102 91 47 39 40 146 183 103 110 106 83 64 33 29 17 4 51 30 13 21 16 358 20 28 25 9 356 9 1 346 15 31 6 12 3 347 341 334 339 337 38 10 359 343 350 1 349 359 356 348 348 349
166 112 136 155 139 112 102 97 105 113 106 98 96 92 106 99 80 107 117 74 43 41 58 58 54 42 43 57 90 79 70 67 87 75 66 57 17 19 28 32 17 41 59 64 60 45 39 19 357 25 45 25 20 10 7 13 31 26 14 4 10 8 353 7 15 28 354 3 353 335 357 336 348 6 2 349 338 3 346 355 360 350 341 1 3
135 151 134 79 92 108 108 100 90 119 127 115 109 107 95 108 102 66 91 94 92 81 78 67 68 69 61 31 85 93 125 140 138 82 86 92 86 61 61 52 44 40 31 50 61 43 43 33 5 8 51 43 22 18 18 10 27 24 18 5 20 12 3 359 3 20 3 357 10 357 329 339 344 1 342 328 348 351 348 353 354 340 355 8 359
155 159 112 125 111 111 115 128 151 129 111 131 146 140 99 96 105 98 69 84 85 89 102 117 121 111 75 94 95 105 115 81 68 74 86 85 83 74 65 29 34 49 37 42 33 29 21 52 18 0 35 53 39 32 28 10 27 29 20 10 8 24 359 2 356 16 360 12 26 345 342 3 356 326 338 307 10 331 353 348 345 347 6 358 346
179 152 159 124 120 108 128 148 112 115 111 65 74 85 140 130 111 105 94 86 102 112 104 90 114 156 141 118 67 42 41 51 81 78 66 53 58 31 44 79 55 32 21 49 46 12 7 48 31 7 5 44 52 45 38 18 20 32 23 21 3 19 5 6 358 13 350 11 13 14 345 317 316 334 342 329 344 358 342 344 342 358 357 348 335
169 164 159 128 129 130 131 113 125 119 115 120 126 157 137 116 112 107 106 102 114 115 123 149 112 95 87 101 100 80 60 35 59 69 89 125 153 65 45 37 51 45 20 4 52 20 8 38 42 20 9 20 47 31 33 35 21 32 21 28 14 13 8 13 8 5 342 19 3 356 344 337 354 355 345 337 331 3 356 338 353 350 349 334 357
171 179 144 128 134 141 135 121 118 123 132 139 146 113 98 105 118 113 120 122 119 124 102 63 71 63 70 73 109 125 111 95 80 84 49 39 31 49 96 57 51 51 24 354 41 32 8 25 47 38 18 19 30 30 21 27 32 37 31 36 16 22 10 21 8 6 356 7 353 354 347 357 4 354 5 357 330 322 331 352 352 345 333 344 5
179 178 150 138 151 139 140 138 127 141 141 136 127 117 122 125 105 108 118 137 123 90 100 112 105 101 100 121 118 124 137 145 109 87 82 312 95 45 54 66 77 60 57 4 25 35 28 25 43 36 30 16 26 32 16 19 34 36 32 36 21 19 17 24 15 11 358 7 349 360 340 9 4 354 360 358 342 333 326 339 337 339 328 2 353
181 160 153 142 150 147 144 134 145 133 138 144 121 126 122 111 119 123 121 114 103 110 113 105 113 136 147 160 122 124 134 136 131 168 178 200 119 76 59 15 78 62 55 24 21 46 36 29 41 42 30 20 19 30 19 17 20 45 30 39 30 20 18 29 20 10 5 357 0 354 332 11 12 348 4 357 344 352 332 331 335 334 339 344 327
158 157 141 146 171 132 144 141 141 138 161 131 131 128 127 129 127 130 126 109 125 127 133 132 139 124 139 153 151 149 148 153 152 157 162 134 95 101 120 170 68 69 52 71 33 59 36 38 38 47 36 22 17 31 22 21 7 49 28 36 35 26 5 39 23 13 13 359 7 351 339 18 19 352 356 349 347 336 332 323 324 331 335 324 335
161 162 153 156 155 138 144 146 143 149 168 131 151 133 141 140 139 131 139 135 127 141 129 149 136 144 147 174 156 115 135 130 137 166 188 112 127 123 137 113 90 95 44 66 68 67 56 47 42 42 41 24 22 16 43 20 3 46 25 36 38 30 10 23 28 12 15 6 6 350 335 19 16 359 349 337 350 332 329 326 323 336 321 322 320
158 161 156 159 161 153 149 150 150 153 172 149 150 140 148 152 147 147 143 140 151 140 142 143 157 162 145 137 136 168 185 151 164 127 70 110 101 132 90 68 76 65 59 37 87 80 74 55 58 41 34 38 31 16 42 26 356 45 30 21 44 32 15 6 25 14 17 14 5 347 337 16 17 354 336 351 343 341 338 326 333 332 322 320 322
166 160 166 162 167 165 154 155 156 161 165 164 147 149 155 158 160 154 149 158 155 179 156 179 130 127 154 165 140 262 80 1 138 76 130 101 121 70 60 78 64 82 88 77 55 67 64 70 63 57 44 34 33 24 51 39 5 27 35 6 37 50 27 13 16 20 5 16 359 6 341 24 20 351 340 8 340 355 338 338 331 320 318 319 322
171 167 166 168 167 172 148 156 156 162 166 169 156 160 160 165 168 162 159 162 167 176 173 169 149 187 187 155 206 197 119 40 16 115 14 60 56 122 102 90 67 61 85 74 98 102 97 81 64 47 45 45 25 37 38 53 18 28 45 4 11 26 34 36 12 16 7 13 1 20 355 8 14 355 338 12 343 355 332 333 329 326 324 326 325
163 161 167 162 167 167 144 158 159 163 171 172 165 162 161 170 175 173 163 170 169 159 199 189 154 157 265 229 194 129 133 126 149 55 86 40 24 357 65 87 93 75 58 72 51 54 52 64 67 58 45 43 36 30 38 40 30 21 46 30 8 11 2 39 11 20 7 9 354 5 19 9 13 347 354 355 344 340 341 336 336 330 331 327 331
162 163 160 161 170 165 155 161 164 165 173 180 165 172 168 169 177 173 162 177 164 171 179 192 177 168 184 216 283 24 53 119 81 113 68 155 168 78 90 94 91 102 107 90 84 74 75 71 68 67 52 42 46 33 37 31 41 18 14 42 6 7 16 14 16 24 16 359 346 10 27 17 7 344 357 343 334 346 346 345 336 334 336 326 331
164 159 160 167 170 167 165 166 168 166 174 182 175 167 163 173 178 176 167 181 179 168 186 181 180 190 183 195 188 185 188 180 181 211 199 173 173 176 113 116 112 103 95 104 111 97 74 70 82 77 73 55 46 43 51 36 34 15 11 14 9 358 32 2 29 1 32 6 349 17 37 23 3 344 3 340 346 351 350 349 339 334 343 336 330
154 167 159 167 168 169 169 170 168 168 176 176 186 177 166 188 180 183 170 187 177 167 188 179 183 178 188 197 186 188 202 187 184 197 185 197 210 123 103 92 97 106 119 122 116 110 114 108 88 82 63 68 43 31 51 69 40 20 5 9 357 3 36 13 10 353 35 19 357 16 38 15 8 360 0 337 351 349 359 350 337 336 339 331 325
155 162 159 168 169 171 170 172 170 171 179 174 182 190 164 192 179 187 170 177 171 181 176 189 183 196 189 190 184 190 203 221 185 174 170 195 170 109 115 116 99 96 94 90 83 86 90 77 69 87 86 60 62 37 19 40 64 60 13 4 2 13 22 23 355 5 29 25 13 7 27 14 15 9 358 343 354 353 358 344 337 338 334 327 326
167 166 162 161 162 172 169 176 177 170 179 173 177 202 160 190 176 181 167 164 176 182 179 192 196 206 189 169 189 181 196 229 169 158 180 163 87 110 110 113 109 100 105 100 95 89 73 82 90 68 73 84 63 53 40 13 21 38 59 7 23 14 13 23 353 11 23 32 23 5 21 13 20 12 0 348 355 356 355 342 338 339 332 335 327
163 155 164 158 163 169 172 186 181 165 179 176 171 199 175 183 191 187 164 167 177 184 189 189 190 212 194 162 170 182 175 224 202 151 156 107 111 110 115 115 118 123 118 111 108 101 91 70 64 85 84 69 66 60 29 34 14 19 25 26 34 16 14 14 1 13 19 30 16 6 21 9 21 14 9 357 356 359 350 338 337 336 332 329 324
150 154 161 152 163 168 177 189 186 167 174 170 166 201 174 176 191 187 169 167 179 188 189 183 184 210 193 163 179 176 179 201 193 124 120 118 118 121 121 121 121 116 105 100 93 80 79 97 104 91 77 78 83 77 65 37 29 21 14 28 19 23 9 17 10 8 19 19 13 8 16 12 21 22 11 356 355 356 344 338 336 332 328 321 324
157 155 136 146 157 166 185 190 184 166 168 171 160 189 193 170 187 185 168 169 180 187 185 187 185 198 195 192 176 167 186 218 162 127 119 119 122 126 133 128 127 115 110 112 119 118 113 109 101 88 80 76 61 99 91 74 45 8 25 19 14 12 10 18 11 6 16 14 4 1 13 11 35 24 15 357 353 346 342 340 331 329 322 324 325
158 144 143 151 162 171 189 189 192 161 165 178 164 178 201 165 185 185 181 178 185 182 193 192 191 189 191 189 181 160 110 244 120 118 124 126 128 129 127 125 122 123 118 112 106 110 114 105 104 102 98 82 76 36 42 54 79 34 33 26 17 11 357 18 12 360 14 5 2 4 1 8 43 25 15 353 346 342 341 336 331 327 324 323 325
155 146 151 155 171 179 192 176 196 161 164 183 164 177 185 181 184 179 179 177 185 187 197 197 186 185 184 190 159 143 202 183 119 127 130 131 130 125 128 132 132 128 134 128 114 109 113 117 97 80 66 60 41 27 21 11 11 36 39 20 26 16 355 18 2 358 12 3 354 6 353 16 39 25 3 346 345 339 336 336 331 327 324 323 320
161 147 154 171 175 187 188 173 213 156 164 175 174 175 185 181 181 181 180 179 183 190 195 199 188 179 186 186 164 181 208 140 127 128 128 134 137 141 141 134 131 125 118 113 107 92 70 85 84 78 76 59 50 35 27 12 1 360 0 3 22 16 2 13 4 357 5 357 358 6 352 17 28 25 355 343 343 342 339 334 330 326 323 319 316
164 165 162 176 177 189 183 174 205 167 160 162 179 181 187 181 174 181 185 177 182 191 199 196 194 181 180 181 175 175 113 122 127 129 140 141 141 137 120 120 130 132 133 130 118 111 106 93 88 85 74 67 60 49 31 16 3 356 352 339 357 19 2 9 2 1 2 353 4 2 355 6 3 17 1 346 1 350 344 330 325 323 319 317 312
189 174 167 180 179 183 179 176 188 183 155 164 179 185 191 180 176 180 186 181 179 186 200 202 188 190 194 180 147 100 135 128 135 138 137 142 129 117 126 128 129 122 109 113 125 131 125 120 116 102 89 75 64 51 38 19 359 353 345 341 342 355 7 4 355 7 354 354 9 0 356 349 345 7 3 5 23 2 349 332 324 319 316 311 308
189 179 176 179 182 182 184 179 177 191 183 179 178 185 191 195 182 178 184 183 187 184 197 198 196 195 187 165 117 129 146 132 133 140 141 129 128 134 132 135 129 119 120 118 115 118 120 123 111 99 93 86 78 70 41 32 19 359 342 346 338 331 349 351 2 3 351 358 15 6 350 344 344 12 359 19 17 359 342 332 323 321 316 311 304
187 178 170 179 190 183 184 187 181 184 185 198 192 190 194 197 199 187 183 187 188 186 190 196 200 200 167 149 141 156 147 148 143 142 137 141 142 139 143 136 126 119 114 122 131 138 132 113 109 104 97 87 77 62 42 20 10 8 4 347 336 322 319 348 9 354 356 357 4 7 350 339 345 13 353 5 3 346 336 326 324 321 315 307 303
185 180 181 186 186 182 184 191 190 190 193 193 201 201 200 203 195 199 198 191 189 183 186 186 205 195 165 156 171 163 146 137 148 149 152 146 141 147 138 127 120 124 133 133 132 119 107 108 105 108 100 97 91 61 33 17 8 10 12 349 315 307 318 334 356 338 358 356 347 1 354 342 352 356 7 9 349 339 331 326 322 318 312 303 300
202 188 183 187 193 193 189 182 189 201 200 197 198 204 202 206 198 199 207 194 185 190 182 184 197 199 174 164 151 133 143 149 154 156 148 146 151 142 136 136 139 134 131 140 129 129 128 122 127 123 121 115 112 62 24 15 6 4 4 353 311 312 318 307 311 326 349 344 328 340 0 344 346 344 23 2 347 334 328 324 321 318 315 320 327
142 209 208 180 175 182 175 185 195 198 202 202 203 208 201 199 206 193 206 190 198 201 192 183 193 185 143 142 146 151 153 155 154 148 148 153 151 142 140 135 129 140 145 135 142 144 136 139 133 126 117 118 102 83 34 8 5 358 352 337 297 296 294 289 285 313 321 317 303 292 9 338 339 358 47 359 341 332 325 321 318 315 316 323 324
160 188 203 166 161 169 169 176 194 204 196 196 200 207 202 214 208 210 203 197 199 208 185 175 185 168 150 156 158 154 155 156 151 149 155 154 147 140 141 135 148 149 143 148 152 147 149 138 136 128 124 113 100 111 49 3 359 354 337 311 279 274 272 273 266 268 268 295 276 268 16 338 331 40 44 8 343 330 326 318 315 318 320 322 318
168 165 200 176 164 162 163 177 181 186 193 196 207 197 199 200 204 208 200 195 196 197 178 171 163 153 157 160 157 155 155 150 151 155 156 152 143 149 145 145 146 143 142 149 149 144 143 156 147 132 130 124 130 169 217 12 354 349 326 294 267 261 252 247 301 309 282 271 268 205 62 333 344 51 22 1 347 339 328 318 319 320 319 316 313
178 157 145 155 143 174 176 172 178 205 198 193 202 199 198 192 196 201 195 188 191 184 173 161 163 158 161 162 158 157 153 155 156 158 156 149 151 149 148 149 148 154 153 154 152 151 164 157 157 156 145 136 142 179 202 42 356 349 328 313 304 298 290 335 338 309 291 275 303 61 54 21 21 36 3 345 346 349 323 322 322 319 315 312 315
161 127 150 158 167 203 154 170 173 194 209 185 197 159 186 192 185 188 181 191 194 194 170 163 163 160 163 161 157 156 156 158 159 160 152 149 150 148 148 156 158 154 155 153 156 162 160 160 171 174 157 143 139 161 178 103 355 351 320 302 301 293 311 356 333 312 301 43 85 90 70 59 35 358 336 330 347 342 323 321 322 317 313 316 318
168 157 184 177 162 205 157 151 153 186 220 178 182 185 196 204 194 191 195 201 199 189 172 166 162 164 162 158 155 157 159 159 160 152 147 152 154 151 149 155 152 155 153 157 172 157 163 157 178 155 150 140 137 157 181 147 89 357 348 312 305 298 346 353 329 308 307 103 110 87 80 77 62 311 280 323 327 328 313 312 313 309 308 312 313
164 146 159 140 143 172 139 153 173 196 209 214 197 204 197 201 208 199 208 201 192 186 168 153 160 159 157 150 153 157 158 159 153 142 149 151 149 145 151 158 157 165 157 171 172 162 166 157 136 135 183 157 147 155 160 168 105 18 7 324 295 320 357 337 329 314 301 348 123 139 98 107 202 289 349 324 305 305 295 297 301 299 301 304 310
150 124 133 140 155 191 184 173 182 185 201 218 220 224 233 207 219 220 211 205 165 151 145 162 158 154 151 154 155 157 155 152 142 144 146 145 147 149 154 160 169 163 165 160 181 156 164 144 152 170 182 198 157 150 157 166 125 111 359 348 307 351 3 339 316 307 305 353 5 54 142 167 21 1 322 313 301 293 295 292 288 282 282 290 302
101 139 152 153 168 174 207 201 178 181 197 210 205 214 223 228 220 225 203 160 138 138 149 155 152 153 152 153 152 148 151 137 140 144 146 146 148 150 160 159 177 164 160 160 164 157 164 157 171 184 180 175 154 154 151 172 155 155 245 312 321 0 17 311 302 297 306 345 345 345 4 33 345 319 311 298 296 292 291 295 274 270 279 290 299
130 153 152 152 163 174 194 217 186 179 187 208 206 208 210 193 194 183 139 135 132 143 146 147 149 150 147 147 146 147 140 143 145 147 148 148 149 155 162 169 179 152 151 160 163 175 176 174 172 190 181 159 153 159 154 161 174 176 200 236 240 260 277 270 287 302 305 308 320 332 335 334 314 298 293 294 291 292 294 280 277 282 287 290 298
163 188 163 163 207 183 109 88 87 114 171 170 152 142 149 142 153 108 101 110 127 134 139 143 143 142 141 142 144 142 142 144 145 149 151 148 155 158 165 177 159 149 158 166 181 188 189 189 180 195 185 171 162 174 165 171 175 192 199 213 218 235 248 259 298 283 286 290 311 324 312 300 293 290 287 286 289 289 283 281 285 284 286 290 289
189 201 134 163 186 106 118 121 114 121 107 120 136 146 129 148 116 110 120 126 129 135 138 139 139 139 140 146 149 149 148 148 153 155 153 156 158 162 170 171 155 166 172 180 189 192 198 196 193 196 189 184 176 169 170 180 184 193 201 207 214 224 242 239 250 257 267 294 312 303 294 288 284 283 283 285 287 283 270 270 281 292 290 289 311
182 133 125 169 116 123 135 133 135 127 116 131 141 137 150 124 120 127 135 141 143 138 137 141 142 143 148 153 153 153 153 154 156 161 158 162 163 170 174 168 169 182 184 189 195 192 197 203 195 199 191 188 182 163 171 181 190 197 203 213 214 218 234 231 232 269 291 296 291 285 279 275 277 277 277 273 262 277 307 306 292 297 334 321 331
166 135 162 143 130 143 142 144 143 144 143 146 135 145 135 129 140 145 151 148 141 136 139 141 141 148 152 157 153 156 154 158 163 162 167 167 171 178 178 173 177 190 194 196 200 196 196 205 194 198 190 187 186 182 172 171 182 194 206 210 201 227 237 250 259 252 256 265 276 282 284 281 278 276 273 275 277 281 284 300 349 338 320 324 339
136 138 190 138 147 149 152 155 153 156 152 144 148 147 144 150 152 160 153 144 138 146 149 149 153 155 160 160 162 155 157 163 171 170 173 176 178 187 186 182 186 192 196 198 204 201 198 198 196 189 195 190 195 192 194 167 181 195 204 195 193 200 213 208 216 15 340 302 295 286 282 274 259 251 261 261 21 359 328 335 339 335 327 322 350
145 152 205 160 163 155 160 163 160 164 150 151 148 147 154 159 165 160 150 145 148 151 154 154 159 163 164 166 162 163 166 170 172 178 185 187 186 191 188 185 194 199 203 200 203 205 199 202 196 189 188 205 203 206 205 170 155 154 150 129 113 108 41 56 83 24 330 312 293 280 274 269 278 326 333 330 342 345 336 341 328 330 324 329 345
146 159 208 170 173 153 165 169 168 166 158 157 150 153 161 170 166 157 146 149 151 160 160 163 169 169 165 169 167 171 177 176 177 181 180 105 13 57 111 190 186 131 129 131 158 196 197 197 202 186 214 205 216 170 118 124 122 113 102 103 107 104 96 62 12 346 307 289 282 277 272 271 291 11 340 321 330 330 341 341 323 315 325 340 336
159 169 200 195 182 162 170 175 172 168 170 161 152 160 169 173 163 156 155 157 162 167 168 172 176 178 173 177 172 176 183 182 182 185 185 160 166 108 55 30 103 164 146 129 118 119 86 48 187 145 34 87 115 127 130 121 121 121 125 128 128 124 114 82 41 15 324 279 289 285 279 278 322 358 325 328 318 331 338 329 317 310 327 342 333